Regional Weather Roundup
Issued by NWS

Home | Current Version | Previous Version | Graphics & Text | Print | Product List | Glossary On
Versions: 1 2 3 4 5 6 7 8 9 10 11 12 13 14 15 16 17 18 19 20 21 22 23 24 25 26 27 28 29 30 31 32 33 34 35 36 37 38 39 40 41 42 43 44 45 46 47 48 49 50
000
ASUS43 KIND 020409
RWRIN

WEATHER ROUNDUP FOR INDIANA
NATIONAL WEATHER SERVICE INDIANAPOLIS IN
1200 AM EDT SUN AUG 02 2015

NOTE: "FAIR" INDICATES FEW OR NO CLOUDS BELOW 12,000 FEET WITH NO
SIGNIFICANT WEATHER AND/OR OBSTRUCTIONS TO VISIBILITY.

* - STATION DOES NOT REPORT WEATHER SUCH AS PRECIPITATION OR FOG.

+ - STATION NOT QUALITY CONTROLLED BY THE NATIONAL WEATHER SERVICE.
    USE DATA WITH CAUTION...ESPECIALLY DEWPOINT AND RELATIVE
    HUMIDITY OBSERVATIONS.

INZ001>003-010>013-019-020-020500-
NORTHWEST INDIANA

CITY           SKY/WX    TMP DP  RH WIND       PRES   REMARKS
GARY /AIRPORT/ PTCLDY    76  64  66 SW5       29.91F
KNOX *+        PTCLDY    70  61  73 SW6       29.92F
LA PORTE +     PTCLDY    71  64  77 SW6       29.93S
MICHIGAN CITY+ PTCLDY    72  59  64 SW7       29.91F
MONTICELLO +   CLEAR     69  65  86 SW6       29.94F
RENSSELAER +   PTCLDY    70  66  88 S5        29.94S
VALPARAISO     PTCLDY    72  63  73 SW8       29.93S

$$

LMZ046-743>745-020500-
SOUTHERN LAKE MICHIGAN

STATION/POSITION TIME  TEMP    WIND        PRES    WAVE
                       AIR SEA DIR/SP/G            HT
                 (UTC) (F)     (DEG/KT/KT) (MB)    (FT)
BURNS HARBOR     0300   78     230/ 10/ 13 1013.2S
MICHIGAN CITY    0300   77     190/ 13/ 15   N/A
5NW MICH CITY    0400   76 74  240/ 14/ 17   N/A     2

$$

INZ004-005-014>016-021>024-020500-
NORTH CENTRAL INDIANA

CITY           SKY/WX    TMP DP  RH WIND       PRES   REMARKS
GOSHEN         CLEAR     71  61  70 SW9       29.91F
LOGANSPORT +   PTCLDY    66  59  77 SW6       29.96S
PERU/GRISSOM   PTCLDY    67  61  81 SW9       29.94F
ROCHESTER +    PTCLDY    72  64  78 SW5       29.94F
SOUTH BEND     CLEAR     73  61  65 SW12      29.91F
WARSAW +       CLEAR     70  61  73 W8        29.93F

$$

INZ006>009-017-018-025>027-020500-
NORTHEAST INDIANA

CITY           SKY/WX    TMP DP  RH WIND       PRES   REMARKS
ANGOLA *+      MOCLDY    66  61  82 CALM      29.92F
AUBURN +       PTCLDY    72  59  64 SW6       29.93S
FORT WAYNE     MOCLDY    69  60  73 SW8       29.95S
HUNTINGTON +   PTCLDY    71  60  69 SW5       29.94F

$$

INZ028-029-035-036-043>045-051>053-020500-
WEST CENTRAL INDIANA

CITY           SKY/WX    TMP DP  RH WIND       PRES   REMARKS
CRAWFORDSVL +  PTCLDY    64  62  96 S3          N/A
GREENCASTLE +  MOCLDY    64  61  88 CALM      29.99F
LAFAYETTE      CLEAR     67  64  90 W3        29.95F
TERRE HAUTE    PTCLDY    65  62  90 CALM      29.98S

$$

INZ030>032-037>040-046>048-054>057-064-065-020500-
CENTRAL INDIANA

CITY           SKY/WX    TMP DP  RH WIND       PRES   REMARKS
FISHERS *+     PTCLDY    66  63  88 CALM      29.98F
FRANKFORT +    FAIR      67  67 100 S3        29.99S
GREENWOOD *+   PTCLDY    64  61  88 SW3       29.99F
INDIANAPOLIS   PTCLDY    68  59  73 SW7       29.97S
-EAGLE CREEK   PTCLDY    71  60  68 SW3       29.97F
KOKOMO *+      PTCLDY    70  59  68 SW9       29.96F
MARION +       PTCLDY    63  59  86 SW6       29.97S
MT COMFORT *+  PTCLDY    64 N/A N/A CALM      29.99S
SHELBYVILLE    PTCLDY    66  61  84 CALM      29.98S
ZIONSVILLE +   CLEAR     64  60  86 SW3       29.99S

$$

INZ033-034-041-042-049-050-058-059-020500-
EAST CENTRAL INDIANA

CITY           SKY/WX    TMP DP  RH WIND       PRES   REMARKS
MUNCIE         PTCLDY    69  58  67 SW6       29.97F

$$

INZ060-061-067>069-081>083-085>088-020500-
SOUTHWEST INDIANA

CITY           SKY/WX    TMP DP  RH WIND       PRES   REMARKS
EVANSVILLE     CLEAR     70  64  81 CALM      29.99S
HUNTINGBURG *+ MOCLDY    66  63  88 CALM      29.99S
WASHINGTON +   PTCLDY    66  62  87 CALM      29.98S

$$

INZ062-063-066-070>080-084-089>092-020500-
SOUTH CENTRAL AND SOUTHEAST INDIANA

CITY           SKY/WX    TMP DP  RH WIND       PRES   REMARKS
BLOOMINGTON    PTCLDY    63  61  93 CALM      30.00S
MADISON *+     PTCLDY    63  61  94 CALM      30.03S
NORTH VERNON + PTCLDY    66  66 100 CALM      30.01R
SEYMOUR +      PTCLDY    64  61  88 CALM      29.99S

$$




USA.gov is the U.S. government's official web portal to all federal, state and local government web resources and services.